Glasgow, MT

3:59 AM MST on December 09, 2016 (GMT -0700)
Wokal-Glasgow International

Weather History for KGGW - January, 2013

Change the Weather History Date:

Tuesday, January 15, 2013

  Actual Average Record
Temperature  
Mean Temperature 26 °F 13 °F  
Max Temperature 38 °F 23 °F 53 °F (1894)
Min Temperature 13 °F 4 °F -38 °F (1950)
Degree Days  
Heating Degree Days 39 52  
Month to date heating degree days 763 780  
Since 1 July heating degree days 4293 4282  
Cooling Degree Days 0 0  
Month to date cooling degree days 0 0  
Year to date cooling degree days 0 0  
Moisture  
Dew Point 25 °F    
Average Humidity 80    
Maximum Humidity 96    
Minimum Humidity 64    
Precipitation  
Precipitation 0.01 in 0.01 in 0.20 in (1895)
Month to date precipitation 0.42 0.21  
Year to date precipitation 0.42 0.21  
Snow  
Snow 0.20 in 0.30 in 2.70 in (1969)
Month to date snowfall 9.5 4.6  
Since 1 July snowfall 32.1 19.2  
Snow Depth 7.00 in    
Sea Level Pressure  
Sea Level Pressure 29.88 in    
Wind  
Wind Speed 17 mph (West)    
Max Wind Speed 32 mph    
Max Gust Speed 40 mph    
Visibility 7 miles    
Events Snow    
T = Trace of Precipitation, MM = Missing Value Source: NWS Daily Summary

Daily Weather History Graph

Daily Weather History Graph

Search for Another Location

Airport or City:

Trip Planner

Search our weather history database for the weather conditions in past years. The results will help you decide how hot, cold, wet, or windy it might be!

Date:

Astronomy

Jan. 15, 2013 Rise Set
Actual Time 7:51 AM MST 4:40 PM MST
Civil Twilight 7:16 AM MST 5:15 PM MST
Nautical Twilight 6:37 AM MST 5:54 PM MST
Astronomical Twilight 6:00 AM MST 6:31 PM MST
Moon 9:34 AM MST (1/15) 10:00 PM MST (1/15)
Length of Visible Light 9h 59m
Length of Day
8h 48m
Waxing Crescent, 20% of the Moon is Illuminated
Jan 15
Waxing Crescent
Jan 18
First Quarter
Jan 26
Full
Feb 3
Last Quarter
Feb 10
New

Hourly Weather History & Observations

Time (MST) Temp. Windchill Dew Point Humidity Pressure Visibility Wind Dir Wind Speed Gust Speed Precip Events Conditions
12:53 AM 15.1 °F 6.4 °F 10.9 °F 84% 29.99 in 10.0 mi ESE 5.8 mph - N/A   Overcast
1:53 AM 17.1 °F - 12.9 °F 84% 30.00 in 6.0 mi Calm Calm - N/A   Overcast
2:53 AM 19.0 °F 12.3 °F 16.0 °F 88% 29.99 in 7.0 mi WSW 4.6 mph - 0.00 in   Overcast
3:37 AM 19.4 °F - 15.8 °F 86% 29.84 in 2.5 mi Calm Calm - N/A   Overcast
3:46 AM 19.4 °F - 17.6 °F 93% 29.84 in 2.5 mi Calm Calm - N/A   Overcast
3:53 AM 19.9 °F 14.9 °F 17.1 °F 89% 29.97 in 3.0 mi SW 3.5 mph - N/A   Overcast
4:02 AM 19.4 °F 14.3 °F 17.6 °F 93% 29.85 in 4.0 mi WSW 3.5 mph - N/A   Overcast
4:36 AM 19.4 °F 14.3 °F 17.6 °F 93% 29.84 in 10.0 mi West 3.5 mph - N/A   Overcast
4:53 AM 19.9 °F 12.1 °F 18.0 °F 92% 29.98 in 10.0 mi WNW 5.8 mph - N/A   Overcast
5:53 AM 23.0 °F 15.8 °F 21.0 °F 92% 29.95 in 7.0 mi West 5.8 mph - N/A   Overcast
6:00 AM 24.8 °F 19.1 °F 21.2 °F 86% 29.81 in 3.0 mi West 4.6 mph - 0.00 in Snow Light Snow
6:08 AM 24.8 °F 17.9 °F 23.0 °F 93% 29.81 in 2.0 mi WSW 5.8 mph - 0.00 in Snow Light Snow
6:12 AM 24.8 °F 17.9 °F 23.0 °F 93% 29.81 in 3.0 mi WSW 5.8 mph - 0.00 in Snow Light Snow
6:24 AM 26.6 °F 21.2 °F 24.8 °F 93% 29.81 in 8.0 mi West 4.6 mph - 0.01 in   Overcast
6:53 AM 26.1 °F 19.4 °F 25.0 °F 96% 29.93 in 4.0 mi WSW 5.8 mph - 0.01 in   Overcast
7:24 AM 28.4 °F 20.4 °F 26.6 °F 93% 29.80 in 10.0 mi West 8.1 mph - N/A   Overcast
7:45 AM 28.4 °F 19.7 °F 26.6 °F 93% 29.80 in 2.5 mi West 9.2 mph - 0.00 in Snow Light Snow
7:53 AM 28.0 °F 20.0 °F 26.1 °F 92% 29.92 in 2.0 mi WNW 8.1 mph - 0.00 in Snow Light Snow
8:08 AM 28.4 °F 18.5 °F 26.6 °F 93% 29.80 in 5.0 mi WNW 11.5 mph - 0.00 in Snow Light Snow
8:36 AM 32.0 °F 21.6 °F 28.4 °F 87% 29.81 in 6.0 mi West 15.0 mph - 0.00 in   Overcast
8:43 AM 32.0 °F 21.2 °F 28.4 °F 87% 29.81 in 1.8 mi West 16.1 mph 23.0 mph 0.00 in Snow Light Snow
8:53 AM 32.0 °F 21.6 °F 28.9 °F 88% 29.93 in 1.0 mi West 15.0 mph - 0.00 in Snow Light Snow
9:00 AM 32.0 °F 21.6 °F 28.4 °F 87% 29.82 in 1.8 mi West 15.0 mph - 0.00 in Snow Light Snow
9:04 AM 32.0 °F 21.6 °F 28.4 °F 87% 29.81 in 3.0 mi West 15.0 mph - 0.00 in Snow Light Snow
9:53 AM 33.1 °F 21.9 °F 28.9 °F 85% 29.92 in 10.0 mi West 18.4 mph - 0.01 in   Overcast
10:14 AM 33.8 °F 23.2 °F 30.2 °F 87% 29.81 in 2.0 mi West 17.3 mph - 0.00 in Snow Light Snow
10:18 AM 33.8 °F 21.9 °F 30.2 °F 87% 29.81 in 1.2 mi WNW 21.9 mph 26.5 mph 0.00 in Snow Light Snow
10:28 AM 33.8 °F 21.9 °F 28.4 °F 81% 29.81 in 2.0 mi WNW 21.9 mph 27.6 mph 0.00 in Snow Light Snow
10:36 AM 35.6 °F 24.2 °F 28.4 °F 75% 29.81 in 6.0 mi WNW 21.9 mph 32.2 mph 0.00 in   Haze
10:53 AM 35.1 °F 23.5 °F 28.0 °F 76% 29.91 in 10.0 mi WNW 21.9 mph 28.8 mph 0.00 in   Overcast
11:53 AM 36.0 °F 25.6 °F 28.0 °F 73% 29.90 in 10.0 mi West 18.4 mph 27.6 mph N/A   Overcast
12:53 PM 37.0 °F 26.2 °F 27.0 °F 67% 29.87 in 10.0 mi West 21.9 mph 32.2 mph N/A   Overcast
1:53 PM 36.0 °F 22.8 °F 28.0 °F 73% 29.87 in 10.0 mi WNW 31.1 mph 38.0 mph 0.00 in   Overcast
2:53 PM 37.0 °F 24.9 °F 28.0 °F 70% 29.85 in 10.0 mi WNW 27.6 mph 38.0 mph N/A   Overcast
3:53 PM 37.0 °F 25.1 °F 28.9 °F 73% 29.87 in 10.0 mi WNW 26.5 mph 38.0 mph N/A   Overcast
4:53 PM 37.0 °F 24.5 °F 28.9 °F 73% 29.87 in 10.0 mi WNW 29.9 mph 38.0 mph N/A   Mostly Cloudy
5:53 PM 37.0 °F 25.4 °F 30.0 °F 76% 29.89 in 10.0 mi WNW 25.3 mph 34.5 mph N/A   Overcast
6:53 PM 37.0 °F 25.4 °F 28.9 °F 73% 29.89 in 10.0 mi WNW 25.3 mph 34.5 mph N/A   Overcast
7:53 PM 37.0 °F 25.1 °F 28.9 °F 73% 29.90 in 10.0 mi WNW 26.5 mph 34.5 mph N/A   Overcast
8:53 PM 37.0 °F 26.7 °F 28.9 °F 73% 29.91 in 10.0 mi WNW 19.6 mph 28.8 mph N/A   Overcast
9:53 PM 36.0 °F 25.3 °F 28.9 °F 76% 29.91 in 10.0 mi WNW 19.6 mph - N/A   Overcast
10:53 PM 36.0 °F 25.3 °F 28.9 °F 76% 29.90 in 10.0 mi West 19.6 mph - N/A   Overcast
11:53 PM 37.0 °F 26.4 °F 28.0 °F 70% 29.87 in 10.0 mi West 20.7 mph 29.9 mph N/A   Overcast